brack.ch alexa rank chart, brack.ch alexa rank daily changes

brack.ch alexa rank chart, brack.ch alexa rank daily changes

brack.ch
Actual rank:
30 337

RANK HISTORY

Date Rank Diff
2017/05/28 30 337 +578
2017/05/27 29 759 +233
2017/05/26 29 526 -187
2017/05/25 29 713 -545
2017/05/24 30 258 -451
2017/05/23 30 709 -38
2017/05/22 30 747 +362
2017/05/21 30 385 -96
2017/05/20 30 481 -509
2017/05/19 30 990 -684
2017/05/18 31 674 +35
2017/05/17 31 639 -41
2017/05/16 31 680 -539
2017/05/15 32 219 -321
2017/05/14 32 540 +135
2017/05/13 32 405 -146
2017/05/12 32 551 -109
2017/05/11 32 660 -203
2017/05/10 32 863 -750
2017/05/09 33 613 -339
2017/05/08 33 952 -192
2017/05/07 34 144 +786
2017/05/06 33 358 +20
2017/05/05 33 338 +27
2017/05/04 33 311 -357
2017/05/03 33 668 -121
2017/05/02 33 789 +314
2017/05/01 33 475 +160
2017/04/30 33 315 +228
2017/04/29 33 087 -543
2017/04/28 33 630 -1 087
2017/04/27 34 717 -765
2017/04/26 35 482 +287
2017/04/25 35 195 -99
2017/04/24 35 294 +527
2017/04/23 34 767 +81
2017/04/22 34 686 -243
2017/04/21 34 929 -221
2017/04/20 35 150 +171
2017/04/19 34 979 +338
2017/04/18 34 641 -647
2017/04/17 35 288 +508
2017/04/16 34 780 +334
2017/04/15 34 446 +70
2017/04/14 34 376 -112
2017/04/13 34 488 -66
2017/04/12 34 554 -255
2017/04/11 34 809 +104
2017/04/10 34 705 +88
2017/04/09 34 617 +205
2017/04/08 34 412 +302
2017/04/07 34 110 -547
2017/04/06 34 657 -378
2017/04/05 35 035 -394
2017/04/04 35 429 -114
2017/04/03 35 543 +891
2017/04/02 34 652 -124
2017/04/01 34 776 -254
2017/03/31 35 030 +47
2017/03/30 34 983 -726
2017/03/29 35 709

WIDGET FOR YOUR SITE

DOMAINS WITH THE NEAREST RANK

Domain Rank
soccer-king.jp 30 332
unwetterzentrale.de 30 333
waterstones.com 30 334
megaline.co 30 335
needforspeed.com 30 336
brack.ch 30 337
gazelle.com 30 338
seu.edu.sa 30 339
longyp.com 30 340
express.hr 30 341
registroelettronico.com 30 342

DOMAINS WITH THE NEAREST RANK BY TLD .ch

Domain Rank
unibas.ch 29 043
jobs.ch 29 218
cokeandpopcorn.ch 29 359
pctipp.ch 29 465
lematin.ch 30 179
brack.ch 30 337
redacted.ch 30 394
zkb.ch 30 429
unil.ch 31 274
watchfreemovies.ch 32 697
safesear.ch 32 741